Погода в Жалтыре

Погода в Жалтыре : погода сейчас, прогноз погоды и архив. Всё, что Вы хотите узнать о погоде в Жалтыре!

Поиск расширенной информации на нашем сайте:

Другие новости

Новости СМИ2

Главная страница сайта

Новости сайта

02.10.2013

Напоминаем, что на нашем новом сайте вы можете получить высокодетализированные прогнозы погоды по пунктам России, СНГ и мира (включающие важные для авиации метеовеличины, такие как направление и скорость ветра, видимость, явления погоды, количество и форма облачности, нижняя и верхняя граница облачности), а также ознакомиться с разнообразными материалами по авиационной метеорологии и подборкой полезных ссылок на эту тему.

Сайт Метеоцентр.Азия посвящён разработке технологий оптимизации авиаметеорологического обслуживания, включая проектирование и перспективное создание нескольких автоматизированных авиаметеорологических систем:
- система выпуска высокодетальных прогностических карт явлений погоды для нижнего воздушного пространства по России и ближнему зарубежью;
- система верификации прогнозов TAF (выпускаемых синоптиками официальных АМСГ РФ и ближнего зарубежья) и AUTOTAF (выпускаемых сайтом Метеоцентр.Азия) - выявление ошибок, онлайн-сопоставление с фактической погодой METAR, автоматическое внесение коррективов в прогнозы при резком отклонении фактической погоды от прогноза, подсчёт оправдываемости прогнозов по элементам и в целом;
- система обработки, анализа и отображения авиаметеорологической информации для применения провайдерами метеорологической информации.

Рекомендуем: традиционные стили ушу

Погода в Жалтыре - сегодня

Время (UTC), дата Ветер
(°,м/с) 
Видим.   Явления Облачность Т
(°С)
Тd
(°С)
f(%) Тe
(°С)
Pmin
(гПа)
dP
(гПа)
Po
(мм)
O2
(г/м3)
Тmin Tmax R s Состояние
почвы
18 17.01.17 040 (СВ) н/о    ясно 
-22.8 -24.5 86 -23  1043.3  -0.8  751  332    -18.7       
21 17.01.17 130 (ЮВ) н/о    ясно 
-23.9 -25.5 87 -24  1043  -0.5  750  333           
00 18.01.17 070 (В) н/о    ясно 
-22.7 -24.4 86 -23  1042.1  -0.6  750  331           
03 18.01.17 070 (В) н/о    ясно 
-24 -25.7 86 -24  1041.6  -0.7  749  333        24  равномерный
сухой снег
100% 
06 18.01.17 тихо ()   4000 м    ясно 
-18.5 -20.8 82 -19  1040.6  -0.1  749  325  -24.9         
09 18.01.17 030 (СВ) 4000 м    ясно 
-16.6 -20.2 74 -17  1038.9  -1.3  748  323           
12 18.01.17 070 (В) 4000 м    ясно 
-14.9 -16.6 87 -15  1037.7  -0.9  748  320           
15 18.01.17 тихо ()   н/о    ясно 
-15.8 -16.6 94 -16  1037.3  -0.5  747  321    -14       
18 18.01.17 110 (В) н/о    ясно 
-12.6 -13.1 96 -15  1035.3  -1.4  746  316    -14       
21 18.01.17 130 (ЮВ) н/о    ясно 
-15.2 -15.8 95 -19  1034.4  -1.3  745  319           
00 19.01.17 130 (ЮВ) н/о    ясно 
-16.8 -17.8 92 -19  1033.9  -0.7  745  321           
03 19.01.17 130 (ЮВ) н/о    8/0 верхняя 
[Cs]
-18.6 -20 89 -21  1033.7  -0.5  744  323        24  равномерный
сухой снег
100% 
06 19.01.17 160 (Ю) 4000 м    6/0 верхняя 
[Cs]
-16.4 -17.7 90 -19  1033  -0.3  744  320  -18.8         
09 19.01.17 150 (ЮВ) 4000 м    8/0 верхняя 
[Cs]
-15.3 -17.3 85 -19  1031  -1.8  743  318           
12 19.01.17 160 (Ю) 4000 м    10/0 средняя 
[As op]
-14 -15.6 88 -16  1030.1  -0.6  742  317           
15 19.01.17 160 (Ю) н/о    10/10 600 м 
[Sc]
-12 -13.3 90 -15  1028.6  -1.2  741  314    -11.7       
18 19.01.17 150 (ЮВ) н/о    10/10 600 м 
[Sc]
-12.7 -13.7 92 -16  1027.1  -1.5  740  314    -11.7       
21 19.01.17 160 (Ю) н/о  слаб. снег  10/0 средняя 
[As op]
-17.1 -17.8 94 -20  1026.2  -1.6  739  319           
00 20.01.17 200 (Ю) н/о  слаб. снег  8/0 средняя 
[As op]
-18 -18.9 93 -22  1025.9  -0.4  739  320           
03 20.01.17 170 (Ю) н/о  слаб. снег  6/0 средняя 
[As op]
-20.2 -21.3 91 -23  1025.5  -0.7  738  323      0.5  24  равномерный
сухой снег
100% 
06 20.01.17 170 (Ю) 4000 м  слаб. снег  10/0 средняя 
[As op]
-18.9 -20.3 89 -22  1025.8  0.5  739  321  -20.4    0.5     
09 20.01.17 200 (Ю) 4000 м  слаб. снег  10/0 средняя 
[As op]
-16.9 -18.7 86 -21  1023.8  -1.6  737  318           
12 20.01.17 190 (Ю) 4000 м  {снег}  10/0 средняя 
[As op]
-16.6 -18.8 83 -22  1022.3  -1.4  736  317           
18 20.01.17 210 (ЮЗ) н/о  позёмок{снег}  10/0 средняя 
[As trans]
-14.5 -16.5 85 -21  1019.2  -1.6  734  314    -14.5  0.4     
21 20.01.17 220 (ЮЗ) н/о  слаб. снег  10/0 средняя 
[As op]
-15.6 -17.4 86 -21  1018.5  -0.8  734  315           
Время (UTC), дата Ветер
(°,м/с) 
Видим.   Явления Облачность Т
(°С)
Тd
(°С)
f(%) Тe
(°С)
Pmin
(гПа)
dP
(гПа)
Po
(мм)
O2
(г/м3)
Тmin Tmax R s Состояние
почвы

Для получения пояснительной информации подведите курсор к названию столбца.

ПОГОДА в Жалтыре - архив

Всё, что Вы хотите узнать о погоде в Жалтыре - удобно и подробно!

Выберите нужную дату (начиная с 1 января 2015* года) и нажмите кнопку "Найти".
Будут отображены архивные сводки погоды по пункту Жалтыр, начиная с указанной даты.


Отображать данные в формате CSV (для использования в таблицах Excel)


Внимание! Наш архив погоды предназначен исключительно для личного некоммерческого использования в познавательных целях. Если Вам необходимы официальные справки о состоянии погоды (для производственных, юридических, коммерческих и т.п. целей), обращайтесь в органы Росгидромета.

*Примечание: данная дата относится к архиву по метеостанциям СССР (Россия, СНГ, Балтия).
Архив по метеостанциям Зарубежной Европы и Азии (кроме Китая) хранится 10 дней, по другим регионам земного шара (Китай, Африка, Америка, Австралия, Океания) - 1 день.

Жалтыр - район местоположения метеостанции


Название, широта, долгота, высота метеостанции:
Жалтыр 51.6°ш. 69.8°д. 620 м над ур. моря [Казахстан]

Дополнительная информация

В oтличие oт бoльшинства пoгoдных сайтoв мы публикуем пoдрoбную метеoинфoрмацию в детальнoм прoфессиoнальнoм фoрмате.

Характеристики температуры и влажнoсти вoздуха измеряются на высoте 2 м в тени вдали oт зданий и деревьев.
Скoрoсть ветра измеряется на высoте 10 м (на урoвне рoста челoвека скoрoсть ветра ниже в 1.5-2 раза). Если метеoстанция нахoдится в гoрoде или в лесу, тo скoрoсть ветра занижена на 2-4 м/с пo сравнению с oткрытым местoм. Скoрoсть ветра над акватoриями крупных рек и oзёр, а также на вершинах хoлмoв на 2-5 м/с выше, чем в oбычных услoвиях.
Атмoсфернoе давление в разных тoчках местнoсти мoжет значительнo oтличаться oт давления на метеoстанции, в зависимoсти oт услoвий рельефа (при пoдъёме на 10 м давление пoнижается примернo на 1 мм рт.ст.).